カタログに戻る

STARLINK-3048

運用中通信VLEO
NORAD 49148·PAYLOAD·🇺🇸 United States

打ち上げ Sep 14, 2021 から Vandenberg Space Force Base

Loading…

次のパス (今後24時間)

TLE

最新Source: CelesTrak SupGP

元期: Sep 14, 2026, 13:32 UTC

1 49148C 21082U   26257.56437500  .00065420  00000+0  55990-2 0  2574
2 49148  70.0013 159.6072 0002641 267.8028  99.6172 14.97484374    11

AllMySatでSTARLINK-3048をリアルタイム追跡

Download on the App Store